Regional Weather Roundup
Issued by NWS Boston, MA

Home | Current Version | Previous Version | Text Only | Print | Product List | Glossary On
Versions: 1 2 3 4 5 6 7 8 9 10 11 12 13 14 15 16 17 18 19 20 21 22 23 24 25 26 27 28 29 30 31 32 33 34 35 36 37 38 39 40 41 42 43 44 45 46 47 48 49 50
000
ASUS41 KBOX 211810
RWRBOX

REGIONAL WEATHER ROUNDUP
NATIONAL WEATHER SERVICE TAUNTON MA
100 PM EST SUN DEC 21 2014

NOTE:  "FAIR" INDICATES FEW OR NO CLOUDS BELOW 12,000 FEET WITH NO
SIGNIFICANT WEATHER AND/OR OBSTRUCTIONS TO VISIBILITY.  THE FOLLOWING
OBSERVATION LOCATIONS DO NOT REPORT PRESENT WEATHER...PROVINCETOWN...
SMITHFIELD...BLOCK ISLAND...KEENE...AND OXFORD.

MAZALL-211900-
EASTERN MASSACHUSETTS

CITY           SKY/WX    TMP DP  RH WIND       PRES   REMARKS
BOSTON         FLURRIES  32  26  78 N7        30.31S WCI  26
6HR MIN TEMP:  30; 6HR MAX TEMP:  33; 6HR PCP: TRACE;

BEVERLY        CLOUDY    32  24  72 N5        30.30S WCI  27
LAWRENCE       CLOUDY    33  24  69 N5        30.32S WCI  29
BEDFORD        CLOUDY    33  24  69 N6        30.29S WCI  28
BLUE HILL        N/A     30  28  92 N7        30.25F WCI  23
NORWOOD        CLOUDY    33  27  78 N7        30.29F WCI  27
MARSHFIELD     RAIN      36  36 100 NW8       30.29S WCI  29
PLYMOUTH       LGT RAIN  38  36  92 NE10      30.26F WCI  31
TAUNTON        LGT SNOW  34  32  92 N7        30.27S FOG     WCI  28
NEW BEDFORD    CLOUDY    36  35  96 N7        30.25F WCI  30
$$

MAZALL-211900-
CAPE COD AND THE ISLANDS

CITY           SKY/WX    TMP DP  RH WIND       PRES   REMARKS
FALMOUTH       CLOUDY    43  34  70 NE8       30.25S
HYANNIS        CLOUDY    43  34  70 NE5       30.24S
CHATHAM        CLOUDY    42  33  70 NE3       30.26S
PROVINCETOWN   CLOUDY    43  34  70 NE8       30.26F
NANTUCKET      CLOUDY    45  33  63 NE10      30.23F
MARTHAS VNYRD  CLOUDY    42  34  73 NE12      30.24F
$$

MAZALL-211900-
CENTRAL AND WESTERN MASSACHUSETTS

CITY           SKY/WX    TMP DP  RH WIND       PRES   REMARKS
WORCESTER      LGT SNOW  29  27  92 N6        30.25S FOG     WCI  23
6HR MIN TEMP:  26; 6HR MAX TEMP:  29; 6HR PCP:  0.02;

FITCHBURG      CLOUDY    34  25  69 CALM      30.30S
ORANGE         LGT SNOW  32  26  78 N5        30.28S WCI  27
SPRINGFIELD    LGT SNOW  32  29  91 N8        30.28F FOG     WCI  25
WESTFIELD      CLOUDY    33  29  85 N7        30.29S FOG     WCI  27
NORTH ADAMS    CLOUDY    29  25  85 NW5       30.29F FOG     WCI  24
PITTSFIELD     LGT SNOW  29  26  89 NW3       30.23F FOG
$$

RIZALL-211900-
RHODE ISLAND

CITY           SKY/WX    TMP DP  RH WIND       PRES   REMARKS
PROVIDENCE     LGT SNOW  33  31  92 N10       30.27F FOG     WCI  25
6HR MIN TEMP:  32; 6HR MAX TEMP:  33; 6HR PCP:  0.04;

NEWPORT        CLOUDY    36  34  92 N10       30.25F WCI  28
BLOCK ISLAND   CLOUDY    37  34  87 NE13G22   30.22F WCI  29
SMITHFIELD     CLOUDY    32  25  74 N9        30.25F WCI  24
WESTERLY       CLOUDY    39  33  79 N8        30.25S
$$

CTZALL-211900-
CONNECTICUT

CITY           SKY/WX    TMP DP  RH WIND       PRES   REMARKS
BRADLEY INTL   LGT SNOW  33  29  85 N8        30.28F FOG     WCI  26
6HR MIN TEMP:  31; 6HR MAX TEMP:  33; 6HR PCP:  0.03;

HARTFORD       LGT SNOW  33  31  92 VRB7      30.29F FOG     WCI  27
BRIDGEPORT     MIX PCPN  37  34  89 N7        30.27F FOG     WCI  32
DANBURY        CLOUDY    33  28  81 NW5       30.28S HAZE    WCI  29
GROTON         CLOUDY    38  34  85 N8        30.24F
NEW HAVEN      LGT SNOW  36  31  82 N6        30.27F VSB 1   WCI  31
CHESTER        LGT SNOW  34  32  93 N6        30.25F WCI  29
MERIDEN        CLOUDY    34  30  85 N9        30.28F WCI  27
WILLIMANTIC    CLOUDY    35  31  85 NE5       30.27F WCI  31
OXFORD         CLOUDY    34  25  69 N7        30.25F WCI  28
$$

MEZ002-015-021-024-NHZ003-005-008-011-012-014-VTZ005-008-211900-
NORTHERN NEW ENGLAND

CITY           SKY/WX    TMP DP  RH WIND       PRES   REMARKS
PORTLAND ME    FLURRIES  32  24  72 N7        30.32F WCI  26
6HR MIN TEMP:  22; 6HR MAX TEMP:  32; 6HR PCP: TRACE;

BANGOR ME      CLOUDY    29  24  82 N5        30.33F WCI  24
CONCORD NH     CLOUDY    31  27  85 NW6       30.31S WCI  25
MANCHESTER NH  CLOUDY    32  25  75 N9        30.29F WCI  24
NASHUA NH      CLOUDY    33  25  73 N7        30.31F WCI  27
PORTSMOUTH NH  CLOUDY    32  22  68 N8        30.30S WCI  25
JAFFREY NH     CLOUDY    30  25  81 VRB3      30.26S
KEENE NH       CLOUDY    32  28  86 N3        30.29F
BURLINGTON VT  CLOUDY    25  19  78 NE3       30.34F
MT. WASHINGTON SNOW      12  12 100 W21         N/A  VSB 1/8 WCI  -6
$$

NYZ052-076-211900-
EASTERN NEW YORK

CITY           SKY/WX    TMP DP  RH WIND       PRES   REMARKS
ALBANY         FLURRIES  30  23  75 N5        30.32F WCI  25
6HR MIN TEMP:  27; 6HR MAX TEMP:  30; 6HR PCP: TRACE;

NEW YORK CITY  PTSUNNY   34  27  75 NW8       30.29F WCI  27
6HR MIN TEMP:  32; 6HR MAX TEMP:  34;

$$

ANZALL-211900-
MARINE OBSERVATIONS

STATION/POSITION TIME  TEMP    WIND        PRES    VSBY  WAVE
                       AIR SEA DIR/SP/G                  HT/PER
                 (UTC) (F)     (DEG/KT/KT) (MB)    (MI)  (FT/S)
BOSTON BUOY      1750   37 45   20/ 16/ 17 1025.3S         5/ 6
BUZZARDS BAY     1700           30/ 15/ 16 1024.6F
NANTUCKET SOUND  1750   42 43   60/  8/ 10 1023.9F         1/ 3
MASS BAY-STELLWA 1704   36 45   10/ 16/ 19   N/A    1 7/8  4/ 5
ISLE OF SHOALS   1700   30      10/ 14/ 15 1025.7F
S OF BLOCK IS    1708      51                N/A           3/ 4
$$

......................KEY.........................
  SKY/WX - SKY CONDITION/PRESENT WEATHER
  TMP    - TEMPERATURE IN FAHRENHEIT
  DWPT   - DEWPOINT IN FAHRENHEIT
  RH     - RELATIVE HUMIDITY IN PERCENT
  WIND   - DIRECTION AND SPEED IN MPH
  PRES   - MEAN SEA LEVEL PRESSURE IN INCHES OF HG
  WCI    - WIND CHILL INDEX
  VSB    - VISIBILITY IN MILES
  HX     - HEAT INDEX
  TC     - TEMPERATURE IN CELSIUS
  VRB    - VARIABLE WIND DIRECTION
  N/A    - NOT AVAILABLE



USA.gov is the U.S. government's official web portal to all federal, state and local government web resources and services.